User: anonymous   Login
Location: Amarillo Post Office Jordan Station
(35.1907°N, 101.9342°W)
Time: 20:59:44
(UTC+00:00)
Language:

Lacrosse 5 rocket - Orbit

View from above orbital plane
View from above orbital plane
View from above satellite
View from above satellite

Ground track
Ground track

The orbit data is extracted from the following two-line orbital elements,

1 28647U 05016B   21110.32567420  .00001021  00000-0  76338-4 0  9998
2 28647  56.9973  72.2150 0122324 339.4847  20.1301 15.06349545106193
Epoch (UTC): 20 April 2021 07:48:58
Eccentricity: 0.0122324
inclination: 56.9973°
perigee height: 462 km
apogee height: 632 km
right ascension of ascending node: 72.2150°
argument of perigee: 339.4847°
revolutions per day: 15.06349545
mean anomaly at epoch: 20.1301°
orbit number at epoch: 10619

The dashed part of the orbit path shows where the satellite is in the earth's shadow,  

DLR